[[{"header":{"parameterUnit":"m.s-1","parameterCategory":1,"la1":30.2991,"la2":30.254,"lo1":-89.0895,"lo2":-89.0444,"dy":0.0017,"dx":0.0017,"nx":28,"ny":28,"refTime":"2024-07-18T09:00:00:Z","depth":0,"parameterNumber":2,"parameterNumberName":"U-component_of_WINDS"},"data":[0,0,0,0,0,0,0,0,0,0,0,0,0,0,0,0,0,0,0,0,0,0,0,0,0,0,0,0,0,0,0,0,0,0,0,0,0,0,0,0,0,0,0,0,0,0,0,0,0,0,0,0,0,0,0,0,0,0,5.7541,5.7545,0,5.7941,5.7945,5.795,5.8053,5.805,5.8048,5.8046,5.8456,5.8469,5.8482,0,0,0,0,0,0,0,0,0,0,0,0,0,5.6867,5.6879,5.7541,5.7546,5.7551,5.794,5.7946,5.7951,5.8053,5.805,5.8047,5.8044,5.8451,5.8467,5.8483,0,0,0,0,0,0,0,0,0,0,0,0,0,5.7203,5.6883,5.754,5.7649,5.7662,5.7939,5.7946,5.7952,5.8054,5.805,5.8046,5.8043,5.8446,5.8465,5.8485,5.8682,0,0,5.8546,5.8554,0,0,0,0,0,0,0,0,5.7183,5.7227,5.7628,5.7642,5.7658,5.7943,5.7859,5.8197,5.8055,5.7905,5.8045,5.8041,5.8288,5.8321,5.8404,5.8701,5.8719,5.8547,5.8559,5.8568,5.8574,0,0,0,0,0,0,0,5.716,5.7211,5.7699,5.7633,5.7652,5.7678,5.7722,5.7923,5.8113,5.7918,5.7926,5.7972,5.8296,5.8385,5.8414,5.8725,5.8547,5.8564,5.8577,5.8584,5.9206,5.9211,0,0,0,0,0,0,5.7118,5.719,5.7686,5.7711,5.7406,5.7693,5.7742,5.7855,5.8111,5.8146,5.7975,5.7976,5.8353,5.8391,5.8429,5.8679,5.8568,5.8586,5.8598,5.9202,5.9207,5.9212,0,0,0,0,0,0,5.7103,5.7161,5.767,5.7453,5.752,5.7709,5.7835,5.7865,5.7954,5.8154,5.8188,5.8031,5.8351,5.8401,5.8619,5.8694,5.8595,5.8613,5.9196,5.9203,5.921,5.9177,0,0,0,0,0,0,5.7083,5.7155,5.7231,5.7454,5.7531,5.7852,5.784,5.7876,5.7988,5.7993,5.8216,5.8249,5.8352,5.8589,5.8639,5.872,5.8629,5.919,5.9199,5.9208,5.9172,5.9182,5.919,0,0,0,0,0,5.7059,5.7206,5.7235,5.7294,5.7631,5.7857,5.7901,5.8016,5.7993,5.8072,5.8201,5.8242,5.8677,5.861,5.8667,5.8755,5.9186,5.9197,5.9207,5.9168,5.918,5.919,0,0,0,0,0,0,5.6987,5.7237,5.7272,5.7495,5.7654,5.7873,5.7976,5.8025,5.8193,5.819,5.8326,5.8376,5.8585,5.8692,5.8612,5.896,5.8932,5.8954,5.8883,5.8896,5.8905,5.8875,5.8645,0,0,0,0,0,5.6997,5.7159,5.7369,5.7546,5.7624,5.7786,5.7889,5.7964,5.8134,5.8202,5.8346,5.851,5.8684,5.8796,5.8967,5.9188,5.9239,5.9277,5.9285,5.9292,5.931,5.9437,5.9457,5.9246,5.9246,5.9246,0,0,5.7019,5.7176,5.727,5.7536,5.7668,5.7833,5.7842,5.8016,5.8141,5.8228,5.8443,5.8555,5.8747,5.8967,5.9072,5.9063,5.9379,5.9305,5.9309,5.9324,5.9449,5.9469,5.9487,5.9253,5.9252,5.9251,0,0,5.7146,5.728,5.7443,5.7575,5.7775,5.7882,5.7921,5.8134,5.8212,5.8429,5.8499,5.8649,5.8945,5.908,5.9187,5.9365,5.941,5.9417,5.9464,5.9587,5.9603,5.9618,5.9684,5.9705,5.9434,5.9434,5.9434,0,5.7149,5.7401,5.7521,5.7693,5.7808,5.7895,5.8062,5.8184,5.8429,5.8507,5.8493,5.8869,5.9004,5.9258,5.9301,5.9385,5.9435,5.9393,5.9591,5.9608,5.9624,5.9688,5.9711,5.9434,5.9434,5.9434,5.9434,0,5.7396,5.757,5.7678,5.7912,5.804,5.8208,5.8354,5.8469,5.8533,5.8641,5.8863,5.9028,5.9235,5.9301,5.9365,5.9565,5.9554,5.9564,5.9538,5.9641,5.9704,5.9729,5.9433,5.9433,5.9434,5.9434,0,0,5.7488,5.7788,5.7825,5.7934,5.8161,5.8298,5.847,5.8673,5.8769,5.8935,5.9085,5.9334,5.9346,5.9467,5.9547,5.9654,5.9787,5.9652,5.9659,5.9673,6.002,6.0011,6.0037,5.9818,5.9823,5.9827,6.0004,0,5.7644,5.7956,5.8069,5.8325,5.8488,5.8573,5.8724,5.888,5.8986,5.9141,5.9258,5.9434,5.9435,5.9509,5.9618,5.9747,5.9859,5.9736,5.9959,5.9966,5.9909,6.007,6.0062,6.0221,6.0029,6.0033,6.0036,0,5.7867,5.8037,5.8309,5.8517,5.859,5.8723,5.8919,5.9065,5.9244,5.9314,5.945,5.9523,5.9709,5.9671,5.9929,5.9843,5.9941,6.0018,6.0027,6.0054,6.0008,6.0102,6.0274,6.0298,6.0076,6.0072,6.007,0,5.7909,5.8205,5.8407,5.8497,5.8744,5.8836,5.8944,5.9119,5.9234,5.9405,5.9481,5.9671,5.9775,5.9921,6.0044,6.0005,6.0292,6.0264,6.0357,6.0353,6.0414,6.0408,6.0606,6.0474,6.0474,6.0474,6.0473,0,5.8072,5.8236,5.843,5.8554,5.874,5.8869,5.905,5.9163,5.9319,5.9467,5.9552,5.9689,5.9843,6.0001,6.0099,6.0299,6.0345,6.0407,6.0432,6.0401,6.0393,6.0468,6.046,6.048,6.0479,6.0477,6.0476,0,5.815,5.8287,5.8513,5.8728,5.8787,5.8915,5.91,5.9224,5.9334,5.9521,5.9573,5.9746,5.9936,6.0073,6.0319,6.0385,6.06,6.0623,6.0539,6.0551,6.0637,6.0627,6.089,6.0931,6.077,6.0771,6.0772,0,5.8246,5.8374,5.8604,5.8709,5.8816,5.8985,5.9103,5.9235,5.9354,5.9568,5.9667,5.9863,6.0028,6.0328,6.0476,6.0665,6.0695,6.0774,6.0723,6.0689,6.0698,6.0689,6.0703,6.0781,6.0782,6.0783,6.0784,0,5.8402,5.8463,5.8629,5.882,5.8958,5.9115,5.9272,5.9354,5.9514,5.9644,5.9839,5.9966,6.0218,6.0412,6.0615,6.0727,6.0783,6.0798,6.083,6.08,6.0747,6.0778,6.056,6.0792,6.0791,6.079,6.079,6.079,5.8494,5.8612,5.8792,5.8975,5.9108,5.9253,5.9381,5.9507,5.9672,5.9887,5.9955,6.0158,6.0336,6.0614,6.0729,6.089,6.0887,6.0933,6.0945,6.0954,6.0953,6.072,6.0928,6.0928,6.0928,6.0928,6.0928,0,5.8655,5.8775,5.8942,5.916,5.9304,5.9343,5.952,5.9638,5.9816,5.9976,6.0136,6.0362,6.0551,6.0714,6.091,6.1008,6.1039,6.1056,6.105,6.1076,6.0944,6.0898,6.1028,6.1028,6.1028,6.1028,6.1028,6.1028,5.8756,5.8959,5.9041,5.9311,5.9431,5.963,5.9728,5.9863,5.9992,6.024,6.0398,6.0502,6.0665,6.0874,6.105,6.1093,6.1162,6.1173,6.1222,6.1097,6.1085,6.1073,6.1031,6.1187,6.1187,6.1341,6.1343,6.1344]},{"header":{"parameterUnit":"m.s-1","parameterCategory":1,"la1":30.2991,"la2":30.254,"lo1":-89.0895,"lo2":-89.0444,"dy":0.0017,"dx":0.0017,"nx":28,"ny":28,"refTime":"2024-07-18T09:00:00:Z","depth":0,"parameterNumber":3,"parameterNumberName":"V-component_of_WINDS"},"data":[0,0,0,0,0,0,0,0,0,0,0,0,0,0,0,0,0,0,0,0,0,0,0,0,0,0,0,0,0,0,0,0,0,0,0,0,0,0,0,0,0,0,0,0,0,0,0,0,0,0,0,0,0,0,0,0,0,0,-4.3206,-4.3207,0,-4.3319,-4.332,-4.3322,-4.3335,-4.3334,-4.3333,-4.3332,-4.3443,-4.3447,-4.3451,0,0,0,0,0,0,0,0,0,0,0,0,0,-4.2999,-4.3002,-4.3206,-4.3207,-4.3209,-4.3319,-4.332,-4.3322,-4.3335,-4.3334,-4.3333,-4.3331,-4.3442,-4.3447,-4.3451,0,0,0,0,0,0,0,0,0,0,0,0,0,-4.3098,-4.3004,-4.3206,-4.3229,-4.3232,-4.3319,-4.332,-4.3322,-4.3336,-4.3334,-4.3332,-4.3331,-4.344,-4.3446,-4.3452,-4.3522,0,0,-4.347,-4.3473,0,0,0,0,0,0,0,0,-4.3092,-4.3105,-4.3224,-4.3227,-4.3231,-4.3311,-4.3288,-4.3389,-4.3336,-4.3296,-4.3332,-4.333,-4.34,-4.341,-4.3434,-4.3527,-4.3532,-4.3471,-4.3474,-4.3477,-4.3479,0,0,0,0,0,0,0,-4.3085,-4.31,-4.3251,-4.3226,-4.323,-4.3233,-4.3245,-4.3307,-4.3356,-4.33,-4.3301,-4.3314,-4.3402,-4.3428,-4.3437,-4.3533,-4.3471,-4.3476,-4.348,-4.3482,-4.3689,-4.3691,0,0,0,0,0,0,-4.3075,-4.3095,-4.3247,-4.3254,-4.3156,-4.3238,-4.3251,-4.3287,-4.3355,-4.3364,-4.3316,-4.3314,-4.3419,-4.343,-4.3441,-4.3527,-4.3477,-4.3483,-4.3486,-4.3687,-4.369,-4.3692,0,0,0,0,0,0,-4.307,-4.3088,-4.3242,-4.3175,-4.3195,-4.3243,-4.3283,-4.329,-4.3317,-4.3368,-4.3376,-4.3334,-4.3418,-4.3432,-4.3502,-4.3531,-4.3485,-4.3491,-4.3685,-4.3688,-4.3691,-4.3699,0,0,0,0,0,0,-4.3064,-4.3086,-4.3114,-4.3175,-4.3198,-4.3303,-4.3285,-4.3294,-4.3328,-4.3327,-4.3387,-4.3395,-4.3418,-4.3493,-4.3508,-4.3538,-4.3495,-4.3683,-4.3686,-4.369,-4.3696,-4.3702,-4.3707,0,0,0,0,0,-4.3057,-4.3111,-4.3115,-4.3134,-4.3234,-4.3304,-4.3317,-4.3344,-4.333,-4.3358,-4.339,-4.3393,-4.3526,-4.35,-4.3517,-4.3549,-4.3681,-4.3685,-4.369,-4.3694,-4.3701,-4.3707,0,0,0,0,0,0,-4.305,-4.3119,-4.3125,-4.3201,-4.3247,-4.3306,-4.3342,-4.335,-4.3399,-4.3397,-4.3426,-4.344,-4.3508,-4.3536,-4.3506,-4.3621,-4.3602,-4.361,-4.36,-4.3606,-4.3611,-4.3602,-4.35,0,0,0,0,0,-4.3057,-4.311,-4.3167,-4.3229,-4.3252,-4.3293,-4.3325,-4.3341,-4.3389,-4.3408,-4.3446,-4.3491,-4.3543,-4.3577,-4.3627,-4.3701,-4.3714,-4.3732,-4.3737,-4.3741,-4.3747,-4.3788,-4.3796,-4.3706,-4.3706,-4.3706,0,0,-4.3073,-4.3117,-4.3148,-4.3228,-4.3266,-4.3318,-4.3309,-4.3365,-4.3404,-4.3416,-4.3484,-4.3514,-4.3567,-4.3639,-4.3672,-4.3664,-4.3775,-4.3747,-4.3749,-4.3753,-4.3793,-4.3802,-4.3809,-4.3709,-4.3708,-4.3708,0,0,-4.3128,-4.3167,-4.3223,-4.3261,-4.3319,-4.3346,-4.336,-4.3419,-4.3439,-4.3509,-4.3519,-4.3566,-4.3655,-4.3692,-4.3722,-4.3793,-4.3797,-4.3809,-4.3835,-4.3874,-4.3881,-4.3888,-4.3912,-4.392,-4.3815,-4.3815,-4.3815,0,-4.3139,-4.322,-4.325,-4.3306,-4.334,-4.3357,-4.3412,-4.3448,-4.3518,-4.3541,-4.3532,-4.3645,-4.3681,-4.3762,-4.3779,-4.3804,-4.3819,-4.3801,-4.3878,-4.3885,-4.3891,-4.3915,-4.3924,-4.3816,-4.3816,-4.3816,-4.3816,0,-4.3231,-4.3287,-4.3324,-4.3394,-4.3433,-4.3489,-4.3526,-4.3562,-4.3576,-4.3604,-4.3674,-4.3719,-4.3779,-4.38,-4.3814,-4.3883,-4.3876,-4.3872,-4.3854,-4.39,-4.3923,-4.3932,-4.3817,-4.3817,-4.3817,-4.3816,0,0,-4.3282,-4.3369,-4.3382,-4.3414,-4.348,-4.3523,-4.3579,-4.364,-4.367,-4.3718,-4.3765,-4.3841,-4.3838,-4.3873,-4.3891,-4.3926,-4.3978,-4.3918,-4.3919,-4.3926,-4.4057,-4.4058,-4.4068,-4.3983,-4.3985,-4.3986,-4.4052,0,-4.3343,-4.3445,-4.3475,-4.356,-4.3612,-4.3629,-4.3678,-4.3723,-4.3751,-4.3798,-4.3829,-4.3882,-4.3875,-4.3896,-4.3932,-4.3965,-4.4005,-4.396,-4.4025,-4.4027,-4.4009,-4.408,-4.4082,-4.4142,-4.4061,-4.4063,-4.4064,0,-4.3428,-4.348,-4.3571,-4.3631,-4.3654,-4.3697,-4.3755,-4.3801,-4.3852,-4.387,-4.391,-4.3925,-4.3984,-4.3964,-4.4044,-4.4013,-4.4042,-4.4062,-4.4065,-4.407,-4.4047,-4.4086,-4.4162,-4.417,-4.4078,-4.4077,-4.4076,0,-4.3455,-4.3548,-4.3614,-4.3641,-4.3713,-4.3743,-4.3774,-4.3824,-4.3859,-4.3909,-4.3932,-4.3988,-4.4018,-4.4061,-4.4091,-4.4074,-4.4169,-4.4151,-4.4184,-4.4183,-4.4201,-4.4199,-4.4281,-4.4222,-4.4222,-4.4222,-4.4222,0,-4.3519,-4.3574,-4.3627,-4.3668,-4.3729,-4.3763,-4.3823,-4.3854,-4.3899,-4.3945,-4.3964,-4.4006,-4.4044,-4.4092,-4.4116,-4.4178,-4.4192,-4.4207,-4.4212,-4.4205,-4.4202,-4.4222,-4.4218,-4.4225,-4.4224,-4.4223,-4.4223,0,-4.3558,-4.3597,-4.367,-4.3733,-4.375,-4.3792,-4.3846,-4.3885,-4.3915,-4.3974,-4.3989,-4.4036,-4.4093,-4.4128,-4.42,-4.4216,-4.4284,-4.4289,-4.4267,-4.4269,-4.4299,-4.4295,-4.4395,-4.4409,-4.4343,-4.4343,-4.4344,0,-4.3596,-4.3639,-4.3707,-4.374,-4.3772,-4.3825,-4.3861,-4.3896,-4.3932,-4.3995,-4.4027,-4.4086,-4.4134,-4.4225,-4.4264,-4.4319,-4.4324,-4.4356,-4.4332,-4.4323,-4.4323,-4.4319,-4.4323,-4.4358,-4.4359,-4.4359,-4.436,0,-4.3658,-4.3676,-4.3727,-4.3787,-4.383,-4.3877,-4.3925,-4.395,-4.3993,-4.4033,-4.4093,-4.4131,-4.4206,-4.4264,-4.4323,-4.4353,-4.4363,-4.4367,-4.4378,-4.4369,-4.4354,-4.4361,-4.4276,-4.4364,-4.4364,-4.4363,-4.4363,-4.4363,-4.3697,-4.3736,-4.379,-4.3847,-4.3887,-4.3932,-4.3972,-4.4008,-4.4059,-4.4123,-4.4141,-4.4203,-4.4254,-4.4335,-4.4367,-4.4415,-4.441,-4.4425,-4.4429,-4.4432,-4.4432,-4.4348,-4.4426,-4.4426,-4.4426,-4.4426,-4.4426,0,-4.3759,-4.3795,-4.3848,-4.3915,-4.396,-4.3968,-4.4021,-4.4058,-4.4113,-4.4161,-4.4209,-4.4277,-4.4334,-4.4379,-4.4437,-4.4467,-4.4473,-4.448,-4.4477,-4.4484,-4.4433,-4.4418,-4.4475,-4.4475,-4.4475,-4.4475,-4.4475,-4.4475,-4.3797,-4.3862,-4.3886,-4.3972,-4.4008,-4.407,-4.41,-4.4141,-4.4179,-4.4255,-4.4303,-4.4332,-4.4379,-4.444,-4.4492,-4.4504,-4.4523,-4.453,-4.4542,-4.4493,-4.4488,-4.4483,-4.4468,-4.4535,-4.4535,-4.4589,-4.4589,-4.459]}]]